Change the Weather History Date:

Monday, December 17, 2012

  Actual Average Record
Temperature  
Mean Temperature 60 °F -  
Max Temperature 64 °F 54 °F 77 °F (2001)
Min Temperature 55 °F 31 °F 15 °F (1963)
Degree Days  
Heating Degree Days 6    
Growing Degree Days 10 (Base 50)    
Moisture  
Dew Point 56 °F    
Average Humidity 92    
Maximum Humidity 100    
Minimum Humidity 73    
Precipitation  
Precipitation 0.36 in - - ()
Sea Level Pressure  
Sea Level Pressure 29.80 in    
Wind  
Wind Speed 4 mph (SSW)    
Max Wind Speed 16 mph    
Max Gust Speed 28 mph    
Averages and records for this station are not official NWS values.
T = Trace of Precipitation, MM = Missing Value Source: NWS Daily Summary

Daily Weather History Graph

Daily Weather History Graph

Search for Another Location

Airport or City:

Trip Planner

Search our weather history database for the weather conditions in past years. The results will help you decide how hot, cold, wet, or windy it might be!

Date:

Astronomy

Dec. 17, 2012 Rise Set
Actual Time 7:18 AM EST 5:04 PM EST
Civil Twilight 6:49 AM EST 5:32 PM EST
Nautical Twilight 6:17 AM EST 6:04 PM EST
Astronomical Twilight 5:46 AM EST 6:35 PM EST
Moon 10:34 AM EST (12/17) 10:14 PM EST (12/17)
Length of Visible Light 10h 43m
Length of Day
9h 46m
Waxing Crescent, 24% of the Moon is Illuminated
Dec 17
Waxing Crescent
Dec 20
First Quarter
Dec 28
Full
Jan 4
Last Quarter
Jan 11
New

Hourly Weather History & Observations

Time (EST) Temp. Dew Point Humidity Pressure Visibility Wind Dir Wind Speed Gust Speed Precip Events Conditions
12:15 AM 56.5 °F 56.5 °F 100% 29.91 in - Calm Calm - N/A   Overcast
1:15 AM 55.9 °F 55.9 °F 100% 29.90 in - Calm Calm - 0.01 in   Unknown
1:35 AM 55.9 °F 55.9 °F 100% 29.88 in - Calm Calm - 0.04 in   Unknown
1:55 AM 56.3 °F 56.3 °F 100% 29.89 in - Calm Calm - 0.05 in   Unknown
2:15 AM 55.9 °F 55.9 °F 100% 29.89 in - Calm Calm - 0.01 in   Overcast
2:35 AM 55.8 °F 55.8 °F 100% 29.89 in - Calm Calm - 0.09 in   Unknown
3:15 AM 56.3 °F 56.3 °F 100% 29.87 in - Calm Calm - 0.03 in   Overcast
3:35 AM 55.9 °F 55.9 °F 100% 29.88 in - Calm Calm - 0.09 in   Unknown
3:55 AM 55.9 °F 55.9 °F 100% 29.87 in - Calm Calm - 0.12 in   Unknown
4:15 AM 55.8 °F 55.8 °F 100% 29.86 in - South 3.5 mph - 0.03 in   Overcast
4:35 AM 55.9 °F 55.9 °F 100% 29.85 in - SSE 4.6 mph - 0.07 in   Overcast
4:55 AM 55.9 °F 55.9 °F 100% 29.82 in - SSE 4.6 mph - 0.08 in   Overcast
5:15 AM 55.9 °F 55.9 °F 100% 29.82 in - SSE 4.6 mph - N/A   Overcast
5:35 AM 55.8 °F 55.8 °F 100% 29.81 in - SSE 5.8 mph - N/A   Overcast
5:55 AM 55.8 °F 55.8 °F 100% 29.79 in - SSE 8.1 mph - N/A   Overcast
6:15 AM 55.8 °F 55.8 °F 100% 29.76 in - ESE 6.9 mph - N/A   Overcast
6:35 AM 55.8 °F 55.8 °F 100% 29.77 in - SE 8.1 mph - 0.01 in   Overcast
6:55 AM 55.9 °F 55.9 °F 100% 29.83 in - NW 10.4 mph - 0.01 in   Overcast
7:15 AM 56.3 °F 56.3 °F 100% 29.85 in - WNW 5.8 mph - N/A   Overcast
7:35 AM 56.3 °F 56.3 °F 100% 29.86 in - NW 5.8 mph - N/A   Overcast
7:55 AM 56.3 °F 56.3 °F 100% 29.86 in - WNW 3.5 mph - N/A   Overcast
8:15 AM 56.3 °F 56.3 °F 100% 29.84 in - Calm Calm - N/A   Unknown
8:35 AM 56.7 °F 56.7 °F 100% 29.84 in - NW 3.5 mph - N/A   Overcast
8:55 AM 57.0 °F 57.0 °F 100% 29.88 in - WNW 3.5 mph - N/A   Unknown
9:15 AM 57.4 °F 57.4 °F 100% 29.87 in - Calm Calm - N/A   Unknown
9:35 AM 58.3 °F 57.4 °F 97% 29.86 in - Calm Calm - N/A   Unknown
9:55 AM 58.8 °F 57.4 °F 95% 29.86 in - SSE 3.5 mph - N/A   Unknown
10:15 AM 60.1 °F 57.9 °F 93% 29.87 in - South 3.5 mph - N/A   Unknown
10:35 AM 61.5 °F 57.0 °F 85% 29.85 in - South 3.5 mph - N/A   Clear
10:55 AM 62.8 °F 55.6 °F 77% 29.85 in - SW 4.6 mph - N/A   Clear
11:15 AM 63.0 °F 55.6 °F 77% 29.83 in - SW 3.5 mph - N/A   Clear
11:35 AM 63.0 °F 54.9 °F 75% 29.83 in - WSW 3.5 mph - N/A   Clear
11:55 AM 63.5 °F 55.6 °F 75% 29.83 in - SW 3.5 mph - N/A   Clear
12:15 PM 63.5 °F 55.4 °F 75% 29.81 in - SW 4.6 mph - N/A   Scattered Clouds
12:35 PM 64.0 °F 55.4 °F 73% 29.80 in - SW 5.8 mph - N/A   Clear
12:55 PM 64.4 °F 56.3 °F 75% 29.80 in - South 8.1 mph - N/A   Scattered Clouds
1:15 PM 63.5 °F 55.6 °F 75% 29.79 in - South 8.1 mph - N/A   Scattered Clouds
1:35 PM 63.5 °F 55.0 °F 74% 29.78 in - SSW 8.1 mph - N/A   Scattered Clouds
1:55 PM 63.3 °F 55.9 °F 77% 29.79 in - SSW 8.1 mph - N/A   Mostly Cloudy
2:15 PM 62.8 °F 55.9 °F 78% 29.79 in - SSW 4.6 mph - N/A   Overcast
2:35 PM 61.7 °F 56.3 °F 82% 29.77 in - South 6.9 mph - N/A   Overcast
2:55 PM 61.3 °F 56.7 °F 85% 29.80 in - SSW 6.9 mph - N/A   Unknown
3:15 PM 60.8 °F 58.3 °F 91% 29.81 in - SSW 6.9 mph - N/A   Unknown
3:35 PM 60.4 °F 58.3 °F 93% 29.80 in - SSW 10.4 mph - N/A   Unknown
3:55 PM 59.7 °F 58.1 °F 94% 29.80 in - South 9.2 mph - N/A   Unknown
4:15 PM 59.0 °F 58.1 °F 97% 29.79 in - SSE 5.8 mph - N/A   Overcast
4:35 PM 58.5 °F 58.1 °F 99% 29.78 in - South 8.1 mph - 0.01 in   Overcast
4:55 PM 58.1 °F 58.1 °F 100% 29.79 in - South 6.9 mph - 0.01 in   Overcast
7:35 PM 58.6 °F 57.4 °F 96% 29.69 in - SSE 15.0 mph 19.6 mph N/A   Overcast
7:55 PM 59.0 °F 56.8 °F 93% 29.62 in - SSE 16.1 mph 27.6 mph N/A   Overcast
8:15 PM 59.5 °F 55.6 °F 87% 29.63 in - SSE 13.8 mph 24.2 mph N/A   Unknown
8:35 PM 59.4 °F 56.3 °F 90% 29.71 in - WSW 6.9 mph 18.4 mph N/A   Unknown
8:55 PM 59.9 °F 55.4 °F 85% 29.71 in - SW 5.8 mph - N/A   Scattered Clouds
9:15 PM 59.4 °F 55.6 °F 87% 29.70 in - SW 6.9 mph - N/A   Unknown
9:35 PM 59.0 °F 56.3 °F 91% 29.70 in - SSW 6.9 mph - N/A   Unknown
9:55 PM 58.8 °F 56.5 °F 92% 29.71 in - SSW 8.1 mph - N/A   Unknown
10:15 PM 58.8 °F 56.7 °F 93% 29.70 in - SSW 8.1 mph - N/A   Overcast
10:35 PM 58.6 °F 56.7 °F 93% 29.71 in - SSW 10.4 mph - N/A   Overcast
10:55 PM 58.5 °F 56.7 °F 94% 29.70 in - South 9.2 mph - N/A   Overcast
11:15 PM 58.5 °F 56.7 °F 94% 29.70 in - SSW 8.1 mph - N/A   Unknown
11:35 PM 59.0 °F 56.8 °F 93% 29.69 in - SSW 8.1 mph - N/A   Overcast
11:55 PM 59.4 °F 56.8 °F 91% 29.69 in - SSW 8.1 mph - N/A   Overcast